Terminal Aerodrome Forecast
Issued by NWS

Home | Current Version | Previous Version | Text Only | Print | Product List | Glossary On
Versions: 1 2 3 4 5 6 7 8 9 10 11 12 13 14 15 16 17 18 19
000
FTUS46 KMTR 221100
TAFMRY
TAF
KMRY 221132Z 2212/2312 21004KT P6SM OVC006
     FM221700 VRB03KT P6SM SKC
     FM221800 26005KT P6SM SKC
     FM222000 24010KT P6SM SKC
     FM230200 23005KT P6SM OVC008
     FM230900 VRB03KT P6SM OVC008=

USA.gov is the U.S. government's official web portal to all federal, state and local government web resources and services.